Latest Weather Observations for Newdegate

IDW60801

Issued at 9:05 am WST Thursday 31 July 2014 (issued every 30 minutes, with the page automatically refreshed every 10 minutes)

About weather observations | Map of weather stations | Latest weather observations for WA | Other Formats
Station Details ID: 010692 Name: NEWDEGATE RESEARCH STATION Lat: -33.11 Lon: 118.84 Height: 320.0 m
Data from the previous 72 hours. | See also: Recent months at Newdegate
Date/Time
WST
Temp
°C
App
Temp
°C
Dew
Point
Rel
Hum
%
Delta-T
°C
Wind Press
QNH
hPa
Press
MSL
hPa
Rain
since 9 am
mm
Dir
 
Spd
km/h
Gust
km/h
Spd
kts
Gust
kts
31/09:00am 8.3 5.0 4.5 77 1.7 S 11 19 6 10 1025.6 1025.9 0.0
31/08:30am 7.5 4.1 4.1 79 1.5 SW 11 19 6 10 1025.1 - 0.0
31/08:00am 6.9 4.2 3.9 81 1.3 SW 7 11 4 6 1024.6 1025.0 0.0
31/07:30am 5.8 3.0 3.1 83 1.1 WSW 7 11 4 6 1024.1 - 0.0
31/07:00am 5.8 2.1 2.4 79 1.4 WSW 11 15 6 8 1023.4 1023.7 0.0
31/06:30am 5.1 2.2 2.5 83 1.1 W 7 9 4 5 1023.2 - 0.0
31/06:00am 4.5 2.0 1.4 80 1.2 WNW 4 7 2 4 1023.0 1023.3 0.0
31/05:30am 5.7 2.4 2.2 78 1.4 WSW 9 11 5 6 1022.6 - 0.0
31/05:00am 6.3 3.4 2.6 77 1.5 SW 7 11 4 6 1022.5 1022.8 0.0
31/04:30am 6.2 2.4 1.9 74 1.8 SW 11 13 6 7 1022.4 - 0.0
31/04:00am 7.9 2.7 2.2 67 2.4 SW 19 28 10 15 1021.9 1022.3 0.0
31/03:30am 8.5 2.4 2.5 66 2.6 SW 24 32 13 17 1021.8 - 0.0
31/03:00am 8.8 2.4 3.0 67 2.5 SW 26 37 14 20 1021.6 1022.0 0.0
31/02:30am 8.7 3.7 4.7 76 1.8 SW 20 30 11 16 1021.4 - 0.0
31/02:00am 9.4 5.0 6.7 83 1.3 SW 19 30 10 16 1020.9 1021.2 0.0
31/01:30am 9.4 3.4 7.0 85 1.1 SW 28 44 15 24 1020.6 - 0.0
31/01:13am 10.0 4.2 7.9 87 1.0 WSW 28 48 15 26 1020.4 - 0.0
31/01:00am 9.8 5.5 7.9 88 0.9 WSW 20 33 11 18 1020.2 1020.5 0.0
31/12:30am 9.9 5.6 7.8 87 1.0 WSW 20 28 11 15 1019.9 - 0.0
31/12:00am 9.9 5.8 7.7 86 1.1 W 19 26 10 14 1019.7 1020.0 0.0
 
Date/Time
WST
Temp
°C
App
Temp
°C
Dew
Point
Rel
Hum
%
Delta-T
°C
Wind Press
QNH
hPa
Press
MSL
hPa
Rain
since 9 am
mm
Dir
 
Spd
km/h
Gust
km/h
Spd
kts
Gust
kts
30/11:30pm 10.2 6.5 7.8 85 1.2 W 17 26 9 14 1019.6 - 0.0
30/11:00pm 10.8 6.2 8.0 83 1.4 W 22 37 12 20 1019.4 1019.7 0.0
30/10:30pm 11.4 7.6 9.1 86 1.2 W 19 30 10 16 1019.4 - 0.0
30/10:00pm 10.8 8.0 8.6 86 1.1 W 13 20 7 11 1019.4 1019.7 0.0
30/09:30pm 10.1 6.7 7.5 84 1.3 W 15 19 8 10 1019.1 - 0.0
30/09:00pm 10.4 7.4 7.6 83 1.4 WNW 13 22 7 12 1018.8 1019.2 0.0
30/08:30pm 10.9 8.0 8.0 82 1.4 W 13 17 7 9 1019.0 - 0.0
30/08:00pm 11.8 8.5 8.1 78 1.8 W 15 20 8 11 1019.1 1019.4 0.0
30/07:30pm 12.6 8.9 8.1 74 2.3 W 17 26 9 14 1019.0 - 0.0
30/07:00pm 13.2 10.0 8.3 72 2.5 W 15 24 8 13 1019.0 1019.3 0.0
30/06:30pm 13.1 9.8 8.0 71 2.6 WNW 15 22 8 12 1018.7 - 0.0
30/06:00pm 13.5 9.7 7.5 67 3.0 W 17 26 9 14 1018.3 1018.6 0.0
30/05:30pm 14.4 10.8 8.4 67 3.1 W 17 22 9 12 1018.3 - 0.0
30/05:00pm 15.1 11.0 8.6 65 3.3 W 20 32 11 17 1018.1 1018.4 0.0
30/04:30pm 15.3 10.0 8.3 63 3.6 W 26 35 14 19 1017.8 - 0.0
30/04:00pm 15.9 11.9 8.9 63 3.6 W 20 28 11 15 1017.6 1017.9 0.0
30/03:30pm 15.9 11.0 8.6 62 3.8 WNW 24 39 13 21 1017.6 - 0.0
30/03:00pm 15.4 11.0 9.1 66 3.3 WNW 22 33 12 18 1017.6 1017.9 0.0
30/02:30pm 15.9 10.8 9.3 65 3.5 WNW 26 39 14 21 1017.6 - 0.0
30/02:00pm 15.3 10.5 8.8 65 3.4 W 24 35 13 19 1017.7 1018.0 0.0
30/01:30pm 15.3 10.4 8.5 64 3.5 W 24 39 13 21 1017.8 - 0.0
30/01:00pm 15.0 9.7 8.3 64 3.4 WNW 26 37 14 20 1018.0 1018.3 0.0
30/12:30pm 14.8 9.5 8.3 65 3.3 W 26 37 14 20 1018.3 - 0.0
30/12:00pm 14.3 8.4 7.6 64 3.4 W 28 39 15 21 1018.7 1019.1 0.0
30/11:30am 14.2 8.7 7.7 65 3.3 W 26 41 14 22 1019.2 - 0.0
30/11:00am 14.6 8.5 8.1 65 3.3 WNW 30 44 16 24 1019.4 1019.7 0.0
30/10:44am 14.2 8.3 7.5 64 3.4 WNW 28 46 15 25 1019.7 - 0.0
30/10:30am 14.3 8.9 8.0 66 3.2 WNW 26 39 14 21 1019.8 - 0.0
30/10:00am 13.6 9.0 8.2 70 2.7 WNW 22 33 12 18 1020.1 1020.4 0.0
30/09:30am 13.3 8.9 8.8 74 2.3 WNW 22 32 12 17 1020.2 - 0.0
30/09:00am 12.9 8.7 8.4 74 2.3 WNW 20 32 11 17 1020.0 1020.3 0.2
30/08:30am 12.3 8.7 8.2 76 2.1 WNW 17 22 9 12 1019.9 - 0.2
30/08:00am 11.9 8.5 7.8 76 2.0 WNW 15 26 8 14 1019.9 1020.2 0.2
30/07:30am 11.5 8.1 7.8 78 1.8 WNW 15 20 8 11 1019.9 - 0.2
30/07:00am 11.7 7.5 7.6 76 2.0 WNW 19 26 10 14 1019.9 1020.2 0.2
30/06:30am 11.5 7.8 7.8 78 1.8 WNW 17 28 9 15 1019.9 - 0.2
30/06:00am 11.2 7.9 7.9 80 1.6 WNW 15 22 8 12 1019.7 1020.0 0.2
30/05:30am 10.8 7.8 7.9 82 1.4 NW 13 19 7 10 1019.6 - 0.2
30/05:00am 11.2 7.9 7.9 80 1.6 WNW 15 20 8 11 1019.4 1019.7 0.2
30/04:30am 11.4 8.1 7.9 79 1.7 WNW 15 24 8 13 1019.6 - 0.2
30/04:00am 11.4 7.4 8.1 80 1.6 WNW 19 26 10 14 1019.6 1019.9 0.2
30/03:30am 11.4 7.4 8.3 81 1.5 WNW 19 32 10 17 1019.9 - 0.2
30/03:00am 11.6 7.4 8.1 79 1.7 WNW 20 28 11 15 1020.0 1020.3 0.2
30/02:30am 11.3 7.4 8.7 84 1.3 WNW 19 26 10 14 1020.2 - 0.2
30/02:00am 11.0 7.1 8.8 86 1.1 WNW 19 28 10 15 1020.5 1020.8 0.2
30/01:30am 10.7 6.8 8.6 87 1.1 WNW 19 24 10 13 1020.9 - 0.2
30/01:00am 10.4 7.2 8.3 87 1.0 WNW 15 22 8 12 1021.0 1021.3 0.2
30/12:30am 10.2 6.9 8.1 87 1.0 NW 15 20 8 11 1021.0 - 0.2
30/12:00am 9.8 6.4 7.7 87 1.0 WNW 15 20 8 11 1020.9 1021.2 0.2
 
Date/Time
WST
Temp
°C
App
Temp
°C
Dew
Point
Rel
Hum
%
Delta-T
°C
Wind Press
QNH
hPa
Press
MSL
hPa
Rain
since 9 am
mm
Dir
 
Spd
km/h
Gust
km/h
Spd
kts
Gust
kts
29/11:30pm 9.7 6.7 7.8 88 0.9 WNW 13 19 7 10 1021.0 - 0.2
29/11:00pm 9.5 7.2 7.6 88 0.9 WNW 9 15 5 8 1021.1 1021.4 0.2
29/10:30pm 9.9 7.4 8.0 88 0.9 WNW 11 17 6 9 1021.2 - 0.2
29/10:00pm 10.2 8.1 8.3 88 0.9 WNW 9 15 5 8 1021.3 1021.7 0.2
29/09:30pm 10.4 7.9 8.3 87 1.0 NW 11 15 6 8 1021.3 - 0.2
29/09:00pm 10.9 7.8 8.7 86 1.1 NW 15 19 8 10 1021.3 1021.7 0.2
29/08:30pm 11.0 8.3 8.8 86 1.1 NW 13 20 7 11 1021.3 - 0.2
29/08:00pm 11.7 9.4 8.9 83 1.4 NW 11 15 6 8 1021.4 1021.8 0.2
29/07:30pm 12.6 10.4 9.2 80 1.7 NW 11 17 6 9 1021.5 - 0.2
29/07:00pm 12.7 10.1 9.2 79 1.8 NW 13 19 7 10 1021.5 1021.9 0.2
29/06:30pm 12.8 11.4 8.9 77 2.0 WNW 6 7 3 4 1021.5 - 0.2
29/06:00pm 12.6 11.0 8.7 77 2.0 NW 7 11 4 6 1021.4 1021.8 0.2
29/05:30pm 13.3 11.2 8.4 72 2.5 WNW 9 11 5 6 1021.0 - 0.2
29/05:00pm 14.1 11.6 8.3 68 2.9 WNW 11 20 6 11 1020.8 1021.1 0.2
29/04:30pm 14.6 11.3 8.1 65 3.3 WNW 15 22 8 12 1020.9 - 0.0
29/04:00pm 14.9 11.1 7.7 62 3.6 WNW 17 24 9 13 1020.9 1021.2 0.0
29/03:30pm 15.0 11.4 8.3 64 3.4 WNW 17 32 9 17 1021.1 - 0.0
29/03:00pm 15.4 10.7 7.9 61 3.8 WNW 22 30 12 16 1021.0 1021.3 0.0
29/02:30pm 15.5 10.7 8.7 64 3.5 NW 24 33 13 18 1020.6 - 0.0
29/02:00pm 15.6 11.2 8.8 64 3.5 NW 22 30 12 16 1020.6 1020.9 0.0
29/01:30pm 15.3 11.3 9.0 66 3.3 WNW 20 30 11 16 1020.7 - 0.0
29/01:00pm 14.9 10.6 9.3 69 2.9 WNW 22 32 12 17 1021.2 1021.5 0.0
29/12:30pm 15.3 11.2 10.1 71 2.8 WNW 22 32 12 17 1021.6 - 0.0
29/12:00pm 14.6 11.0 9.8 73 2.5 WNW 19 28 10 15 1022.3 1022.6 0.0
29/11:30am 15.8 12.3 10.1 69 3.0 WNW 19 28 10 15 1022.5 - 0.0
29/11:00am 14.3 10.5 9.7 74 2.4 WNW 20 30 11 16 1022.6 1022.9 0.0
29/10:30am 14.0 9.8 9.8 76 2.2 WNW 22 28 12 15 1022.8 - 0.0
29/10:00am 13.0 9.5 10.2 83 1.5 WNW 19 26 10 14 1022.8 1023.1 0.0
29/09:30am 12.6 9.9 10.5 87 1.1 WNW 15 20 8 11 1023.0 - 0.0
29/09:00am 12.4 10.5 10.6 89 0.9 NW 11 20 6 11 1022.9 1023.2 0.2
29/08:30am 11.7 9.3 10.1 90 0.8 WNW 13 19 7 10 1022.7 - 0.2
29/08:00am 11.5 9.5 10.1 91 0.7 WNW 11 19 6 10 1022.4 1022.7 0.2
29/07:30am 11.3 9.2 9.9 91 0.7 WNW 11 19 6 10 1021.9 - 0.2
29/07:00am 11.0 8.9 9.6 91 0.7 WNW 11 17 6 9 1021.6 1022.0 0.2
29/06:30am 10.8 9.0 9.4 91 0.7 WNW 9 13 5 7 1021.4 - 0.2
29/06:00am 10.7 8.0 9.1 90 0.8 WNW 13 17 7 9 1021.2 1021.5 0.2
29/05:30am 10.9 7.5 9.3 90 0.8 W 17 26 9 14 1021.0 - 0.2
29/05:00am 10.9 7.9 9.3 90 0.8 WNW 15 22 8 12 1021.1 1021.4 0.2
29/04:30am 10.8 6.8 9.2 90 0.8 W 20 30 11 16 1021.1 - 0.2
29/04:00am 10.6 7.2 9.2 91 0.7 WNW 17 26 9 14 1020.9 1021.2 0.2
29/03:30am 10.7 6.8 9.3 91 0.7 WNW 20 28 11 15 1020.5 - 0.2
29/03:00am 10.4 7.3 9.0 91 0.7 NW 15 22 8 12 1020.4 1020.7 0.2
29/02:30am 9.9 7.1 8.5 91 0.7 NW 13 19 7 10 1020.3 - 0.0
29/02:00am 9.9 7.0 8.3 90 0.8 NW 13 17 7 9 1020.6 1020.9 0.0
29/01:30am 9.9 7.4 8.3 90 0.8 WNW 11 19 6 10 1020.8 - 0.0
29/01:00am 10.1 6.9 8.5 90 0.8 NW 15 20 8 11 1020.9 1021.2 0.0
29/12:30am 10.3 7.1 8.6 89 0.8 WNW 15 20 8 11 1021.0 - 0.0
29/12:00am 10.4 7.6 8.7 89 0.8 NW 13 19 7 10 1020.8 1021.1 0.0
 
Date/Time
WST
Temp
°C
App
Temp
°C
Dew
Point
Rel
Hum
%
Delta-T
°C
Wind Press
QNH
hPa
Press
MSL
hPa
Rain
since 9 am
mm
Dir
 
Spd
km/h
Gust
km/h
Spd
kts
Gust
kts
28/11:30pm 10.9 8.2 9.0 88 1.0 WNW 13 19 7 10 1020.9 - 0.0
28/11:00pm 11.6 9.0 9.5 87 1.1 WNW 13 22 7 12 1021.4 1021.8 0.0
28/10:30pm 11.7 8.8 9.6 87 1.1 WNW 15 20 8 11 1021.4 - 0.0
28/10:00pm 12.2 9.0 9.9 86 1.2 W 17 24 9 13 1021.5 1021.9 0.0
28/09:30pm 12.0 8.8 9.9 87 1.1 W 17 20 9 11 1021.6 - 0.0
28/09:00pm 12.0 9.0 9.4 84 1.3 W 15 20 8 11 1021.5 1021.9 0.0
28/08:30pm 12.9 10.0 9.5 80 1.8 WNW 15 22 8 12 1021.4 - 0.0
28/08:00pm 13.3 10.3 9.4 77 2.0 WNW 15 20 8 11 1021.3 1021.7 0.0
28/07:30pm 13.6 11.0 9.5 76 2.1 WNW 13 22 7 12 1021.1 - 0.0
28/07:00pm 13.1 11.3 9.5 79 1.9 WNW 9 13 5 7 1021.0 1021.3 0.0
28/06:30pm 12.8 11.3 9.1 78 1.9 WNW 7 9 4 5 1020.7 - 0.0
28/06:00pm 13.6 11.8 9.3 75 2.2 WNW 9 13 5 7 1020.5 1020.8 0.0
28/05:30pm 14.6 12.4 9.4 71 2.7 WNW 11 15 6 8 1020.0 - 0.0
28/05:00pm 15.2 12.6 9.3 68 3.1 WNW 13 22 7 12 1019.8 1020.1 0.0
28/04:30pm 15.3 13.1 9.2 67 3.2 W 11 20 6 11 1019.7 - 0.0
28/04:00pm 16.1 12.2 8.8 62 3.8 WNW 19 30 10 16 1019.4 1019.7 0.0
28/03:30pm 16.0 11.7 9.2 64 3.6 WNW 22 37 12 20 1019.2 - 0.0
28/03:00pm 16.5 11.8 9.4 63 3.7 WNW 24 35 13 19 1018.8 1019.2 0.0
28/02:30pm 16.5 11.8 9.2 62 3.8 WNW 24 37 13 20 1018.8 - 0.0
28/02:00pm 16.3 10.5 9.3 63 3.7 WNW 30 41 16 22 1019.1 1019.4 0.0
28/01:30pm 15.6 11.5 10.2 70 2.9 WNW 22 32 12 17 1019.4 - 0.0
28/01:00pm 15.0 10.4 9.8 71 2.7 NW 24 35 13 19 1019.6 1019.9 0.0
28/12:30pm 14.8 10.1 9.2 69 2.9 WNW 24 35 13 19 1020.1 - 0.0
28/12:00pm 14.6 10.4 9.6 72 2.6 WNW 22 32 12 17 1020.7 1021.0 0.0
28/11:30am 14.0 9.7 9.2 73 2.5 WNW 22 33 12 18 1021.2 - 0.0
28/11:00am 13.1 8.1 9.7 80 1.8 NW 26 37 14 20 1021.4 1021.8 0.0
28/10:30am 12.6 8.4 9.6 82 1.6 WNW 22 33 12 18 1021.6 - 0.0
28/10:00am 11.7 7.0 9.1 84 1.3 WNW 24 35 13 19 1021.6 1022.0 0.0
28/09:30am 11.4 6.7 9.1 86 1.2 WNW 24 37 13 20 1021.4 - 0.0

Other Formats:

Comma delimited format used in spreadsheet applications
http://www.bom.gov.au/fwo/IDW60801/IDW60801.94628.axf

JavaScript Object Notation format (JSON) in row-major order
http://www.bom.gov.au/fwo/IDW60801/IDW60801.94628.json